Location: Zagreb
(45.8000°N, 16.0000°E)
Time: 03:11:43
(UTC+01:00)

S-56A Canister/Altair - Pass Details

Date: 09 October 2020
Orbit: 633 x 2499 km, 38.9° (Epoch: 25 October)

Event Time Altitude Azimuth Distance (km) Brightness Sun altitude
Rises 19:35:13 0° 282° (WNW) 6,174 14.0 -13.8°
Reaches altitude 10° 19:41:18 10° 267° (W) 5,060 13.0 -14.9°
Maximum altitude 19:49:15 17° 232° (SW) 4,165 11.8 -16.3°
Drops below altitude 10° 19:56:18 10° 197° (SSW) 4,356 11.5 -17.5°
Sets 20:00:59 0° 179° (S) 5,010 11.6 -18.3°
